Elk River at Big Falls [ USA-NCR ]

Edit Gauge

Current Conditions

Reading of "n/a" = frozen gauge or gauge error.
Reading Trend Type Updated
151 cfs 1 cfs/hr Flow 00h57m

Station Description

AW Gauge ID: 43511
Source: virtual
Station: 10481
Enabled yes
Description:A new experimental virtual gauge has been created that combines with equal weighting percentage flows calculated from total flows on both Doe River at Elizabethton and Watauga River at Sugar Grove.

The big IF here is that for this equation and subsequent virtual gauge to be accurate there needs to be uniform rainfall over all 3 watersheds, which is seldom the case. However often times the non-uniformness of rainfall can be relatively negligible. Given this, I think this gauge can become quite useful in determining flows in the Elk River.

Calculation:$flow=(0.000000)+(0.300000*($gauge[50449]->getValue(GMETRIC_FLOW,0)))+(0.170000*($gauge[1769]->getValue(GMETRIC_FLOW,0)));
Data is courtesy of AW's Stream Team program. This data is calculated based on other gauges and information provided by the Stream Team. This data, and any river data, should be used with caution.

Information

Gauge History

Times listed in GMT 24h, ET and PT hours provided for convenience Graphs in GMT. Readings of "n/a" constitute a frozen gauge or gauge error.
Reading Updated (GMT) Eastern Pacific Comment
151.06 05/30/2020 02:27:12 May 29 10:27 pm May 29 7:27 pm
149.87 05/30/2020 01:57:20 May 29 09:57 pm May 29 6:57 pm
149.87 05/30/2020 01:27:28 May 29 09:27 pm May 29 6:27 pm
149.19 05/30/2020 00:57:36 May 29 08:57 pm May 29 5:57 pm
150.39 05/30/2020 00:27:44 May 29 08:27 pm May 29 5:27 pm
149.19 05/29/2020 23:57:52 May 29 07:57 pm May 29 4:57 pm
150.39 05/29/2020 23:25:52 May 29 07:25 pm May 29 4:25 pm
151.07 05/29/2020 22:56:00 May 29 06:56 pm May 29 3:56 pm
151.97 05/29/2020 22:26:08 May 29 06:26 pm May 29 3:26 pm
152.65 05/29/2020 21:56:16 May 29 05:56 pm May 29 2:56 pm
152.65 05/29/2020 21:26:24 May 29 05:26 pm May 29 2:26 pm
153.16 05/29/2020 20:56:32 May 29 04:56 pm May 29 1:56 pm
154.36 05/29/2020 20:26:40 May 29 04:26 pm May 29 1:26 pm
156.40 05/29/2020 19:56:48 May 29 03:56 pm May 29 12:56 pm
156.40 05/29/2020 18:57:04 May 29 02:57 pm May 29 11:57 am
157.60 05/29/2020 17:57:20 May 29 01:57 pm May 29 10:57 am
158.50 05/29/2020 16:57:36 May 29 12:57 pm May 29 9:57 am
158.50 05/29/2020 14:56:00 May 29 10:56 am May 29 7:56 am
158.50 05/29/2020 13:56:16 May 29 09:56 am May 29 6:56 am
159.70 05/29/2020 12:56:32 May 29 08:56 am May 29 5:56 am
159.70 05/29/2020 12:26:40 May 29 08:26 am May 29 5:26 am
160.21 05/29/2020 11:56:48 May 29 07:56 am May 29 4:56 am
160.21 05/29/2020 11:26:56 May 29 07:26 am May 29 4:26 am
160.89 05/29/2020 10:57:04 May 29 06:57 am May 29 3:57 am
162.09 05/29/2020 10:27:12 May 29 06:27 am May 29 3:27 am
162.09 05/29/2020 09:57:20 May 29 05:57 am May 29 2:57 am
162.09 05/29/2020 09:27:28 May 29 05:27 am May 29 2:27 am
162.77 05/29/2020 08:57:36 May 29 04:57 am May 29 1:57 am
163.97 05/29/2020 08:27:44 May 29 04:27 am May 29 1:27 am
163.97 05/29/2020 07:57:52 May 29 03:57 am May 29 12:57 am
163.97 05/29/2020 07:25:52 May 29 03:25 am May 29 12:25 am
164.65 05/29/2020 06:56:00 May 29 02:56 am May 28 11:56 pm
165.55 05/29/2020 06:26:08 May 29 02:26 am May 28 11:26 pm
166.23 05/29/2020 05:56:16 May 29 01:56 am May 28 10:56 pm
166.23 05/29/2020 05:26:24 May 29 01:26 am May 28 10:26 pm
166.91 05/29/2020 04:56:32 May 29 12:56 am May 28 9:56 pm
166.91 05/29/2020 04:26:40 May 29 12:26 am May 28 9:26 pm
166.91 05/29/2020 03:56:48 May 28 11:56 pm May 28 8:56 pm
168.11 05/29/2020 03:26:56 May 28 11:26 pm May 28 8:26 pm
168.79 05/29/2020 02:57:04 May 28 10:57 pm May 28 7:57 pm
169.99 05/29/2020 02:27:12 May 28 10:27 pm May 28 7:27 pm
170.67 05/29/2020 01:57:20 May 28 09:57 pm May 28 6:57 pm
171.87 05/29/2020 01:27:28 May 28 09:27 pm May 28 6:27 pm
172.55 05/29/2020 00:57:36 May 28 08:57 pm May 28 5:57 pm
173.75 05/29/2020 00:27:44 May 28 08:27 pm May 28 5:27 pm
172.55 05/28/2020 23:57:52 May 28 07:57 pm May 28 4:57 pm
173.75 05/28/2020 23:25:52 May 28 07:25 pm May 28 4:25 pm
175.11 05/28/2020 22:56:00 May 28 06:56 pm May 28 3:56 pm
176.69 05/28/2020 22:26:08 May 28 06:26 pm May 28 3:26 pm
176.69 05/28/2020 21:56:16 May 28 05:56 pm May 28 2:56 pm
177.89 05/28/2020 21:26:24 May 28 05:26 pm May 28 2:26 pm
179.25 05/28/2020 20:56:32 May 28 04:56 pm May 28 1:56 pm
179.25 05/28/2020 20:26:40 May 28 04:26 pm May 28 1:26 pm
179.93 05/28/2020 19:56:48 May 28 03:56 pm May 28 12:56 pm
182.49 05/28/2020 19:26:56 May 28 03:26 pm May 28 12:26 pm
182.49 05/28/2020 18:57:04 May 28 02:57 pm May 28 11:57 am
183.69 05/28/2020 18:27:12 May 28 02:27 pm May 28 11:27 am
185.05 05/28/2020 17:57:20 May 28 01:57 pm May 28 10:57 am
185.05 05/28/2020 17:27:28 May 28 01:27 pm May 28 10:27 am
185.73 05/28/2020 16:57:36 May 28 12:57 pm May 28 9:57 am
185.73 05/28/2020 16:27:44 May 28 12:27 pm May 28 9:27 am
188.29 05/28/2020 15:25:52 May 28 11:25 am May 28 8:25 am
189.14 05/28/2020 14:56:00 May 28 10:56 am May 28 7:56 am
190.34 05/28/2020 14:26:08 May 28 10:26 am May 28 7:26 am
191.70 05/28/2020 13:56:16 May 28 09:56 am May 28 6:56 am
191.70 05/28/2020 13:26:24 May 28 09:26 am May 28 6:26 am
193.91 05/28/2020 12:56:32 May 28 08:56 am May 28 5:56 am
193.91 05/28/2020 12:26:40 May 28 08:26 am May 28 5:26 am
195.27 05/28/2020 11:56:48 May 28 07:56 am May 28 4:56 am
196.47 05/28/2020 11:26:56 May 28 07:26 am May 28 4:26 am
198.68 05/28/2020 10:57:04 May 28 06:57 am May 28 3:57 am
200.18 05/28/2020 10:27:12 May 28 06:27 am May 28 3:27 am
203.24 05/28/2020 09:57:20 May 28 05:57 am May 28 2:57 am
203.24 05/28/2020 09:27:28 May 28 05:27 am May 28 2:27 am
205.62 05/28/2020 08:57:36 May 28 04:57 am May 28 1:57 am
206.82 05/28/2020 08:27:44 May 28 04:27 am May 28 1:27 am
208.69 05/28/2020 07:57:52 May 28 03:57 am May 28 12:57 am
209.88 05/28/2020 07:25:52 May 28 03:25 am May 28 12:25 am
211.24 05/28/2020 06:56:00 May 28 02:56 am May 27 11:56 pm
212.44 05/28/2020 06:26:08 May 28 02:26 am May 27 11:26 pm
210.57 05/28/2020 05:56:16 May 28 01:56 am May 27 10:56 pm
210.57 05/28/2020 05:26:24 May 28 01:26 am May 27 10:26 pm
205.64 05/28/2020 04:56:32 May 28 12:56 am May 27 9:56 pm
206.84 05/28/2020 04:26:40 May 28 12:26 am May 27 9:26 pm
199.53 05/28/2020 03:56:48 May 27 11:56 pm May 27 8:56 pm
200.73 05/28/2020 03:26:56 May 27 11:26 pm May 27 8:26 pm
194.95 05/28/2020 02:57:04 May 27 10:57 pm May 27 7:57 pm
196.15 05/28/2020 02:27:12 May 27 10:27 pm May 27 7:27 pm
192.75 05/28/2020 01:57:20 May 27 09:57 pm May 27 6:57 pm
192.75 05/28/2020 01:27:28 May 27 09:27 pm May 27 6:27 pm
190.71 05/28/2020 00:57:36 May 27 08:57 pm May 27 5:57 pm
192.21 05/28/2020 00:27:44 May 27 08:27 pm May 27 5:27 pm
190.03 05/27/2020 23:57:52 May 27 07:57 pm May 27 4:57 pm
192.73 05/27/2020 23:25:52 May 27 07:25 pm May 27 4:25 pm
192.73 05/27/2020 22:56:00 May 27 06:56 pm May 27 3:56 pm
193.93 05/27/2020 22:26:08 May 27 06:26 pm May 27 3:26 pm
193.93 05/27/2020 21:56:16 May 27 05:56 pm May 27 2:56 pm
195.13 05/27/2020 21:26:24 May 27 05:26 pm May 27 2:26 pm
195.13 05/27/2020 20:56:32 May 27 04:56 pm May 27 1:56 pm
196.63 05/27/2020 20:26:40 May 27 04:26 pm May 27 1:26 pm
197.31 05/27/2020 19:56:48 May 27 03:56 pm May 27 12:56 pm
198.51 05/27/2020 19:26:56 May 27 03:26 pm May 27 12:26 pm
198.51 05/27/2020 18:57:04 May 27 02:57 pm May 27 11:57 am
199.71 05/27/2020 18:27:12 May 27 02:27 pm May 27 11:27 am
199.71 05/27/2020 17:57:20 May 27 01:57 pm May 27 10:57 am
200.91 05/27/2020 17:27:28 May 27 01:27 pm May 27 10:27 am
201.59 05/27/2020 16:57:36 May 27 12:57 pm May 27 9:57 am
201.59 05/27/2020 16:27:44 May 27 12:27 pm May 27 9:27 am
203.09 05/27/2020 15:25:52 May 27 11:25 am May 27 8:25 am
203.77 05/27/2020 14:56:00 May 27 10:56 am May 27 7:56 am
204.97 05/27/2020 14:26:08 May 27 10:26 am May 27 7:26 am
204.97 05/27/2020 13:56:16 May 27 09:56 am May 27 6:56 am
206.47 05/27/2020 13:26:24 May 27 09:26 am May 27 6:26 am
207.15 05/27/2020 12:56:32 May 27 08:56 am May 27 5:56 am
207.15 05/27/2020 12:26:40 May 27 08:26 am May 27 5:26 am
207.15 05/27/2020 11:56:48 May 27 07:56 am May 27 4:56 am
208.35 05/27/2020 11:26:56 May 27 07:26 am May 27 4:26 am
209.03 05/27/2020 10:57:04 May 27 06:57 am May 27 3:57 am
209.03 05/27/2020 10:27:12 May 27 06:27 am May 27 3:27 am
209.71 05/27/2020 09:57:20 May 27 05:57 am May 27 2:57 am
211.21 05/27/2020 09:27:28 May 27 05:27 am May 27 2:27 am
211.89 05/27/2020 08:57:36 May 27 04:57 am May 27 1:57 am
213.09 05/27/2020 08:27:44 May 27 04:27 am May 27 1:27 am
213.09 05/27/2020 07:57:52 May 27 03:57 am May 27 12:57 am
214.97 05/27/2020 07:25:52 May 27 03:25 am May 27 12:25 am
215.65 05/27/2020 06:56:00 May 27 02:56 am May 26 11:56 pm
215.65 05/27/2020 06:26:08 May 27 02:26 am May 26 11:26 pm
216.33 05/27/2020 05:56:16 May 27 01:56 am May 26 10:56 pm
217.83 05/27/2020 05:26:24 May 27 01:26 am May 26 10:26 pm
217.83 05/27/2020 04:56:32 May 27 12:56 am May 26 9:56 pm
219.03 05/27/2020 04:26:40 May 27 12:26 am May 26 9:26 pm
219.71 05/27/2020 03:56:48 May 26 11:56 pm May 26 8:56 pm
222.71 05/27/2020 03:26:56 May 26 11:26 pm May 26 8:26 pm
222.71 05/27/2020 02:57:04 May 26 10:57 pm May 26 7:57 pm
223.91 05/27/2020 02:27:12 May 26 10:27 pm May 26 7:27 pm
225.44 05/27/2020 01:57:20 May 26 09:57 pm May 26 6:57 pm
226.94 05/27/2020 01:27:28 May 26 09:27 pm May 26 6:27 pm
227.62 05/27/2020 00:57:36 May 26 08:57 pm May 26 5:57 pm
228.82 05/27/2020 00:27:44 May 26 08:27 pm May 26 5:27 pm
227.62 05/26/2020 23:57:52 May 26 07:57 pm May 26 4:57 pm
230.32 05/26/2020 23:25:52 May 26 07:25 pm May 26 4:25 pm
231.00 05/26/2020 22:56:00 May 26 06:56 pm May 26 3:56 pm
233.70 05/26/2020 22:26:08 May 26 06:26 pm May 26 3:26 pm
233.70 05/26/2020 21:56:16 May 26 05:56 pm May 26 2:56 pm
233.70 05/26/2020 21:26:24 May 26 05:26 pm May 26 2:26 pm
235.88 05/26/2020 20:56:32 May 26 04:56 pm May 26 1:56 pm
235.88 05/26/2020 20:26:40 May 26 04:26 pm May 26 1:26 pm
238.23 05/26/2020 19:56:48 May 26 03:56 pm May 26 12:56 pm
238.23 05/26/2020 19:26:56 May 26 03:26 pm May 26 12:26 pm
240.93 05/26/2020 18:57:04 May 26 02:57 pm May 26 11:57 am
241.61 05/26/2020 18:27:12 May 26 02:27 pm May 26 11:27 am
243.11 05/26/2020 17:57:20 May 26 01:57 pm May 26 10:57 am
247.61 05/26/2020 17:27:28 May 26 01:27 pm May 26 10:27 am
247.61 05/26/2020 16:57:36 May 26 12:57 pm May 26 9:57 am
247.61 05/26/2020 16:27:44 May 26 12:27 pm May 26 9:27 am
249.11 05/26/2020 15:25:52 May 26 11:25 am May 26 8:25 am
249.79 05/26/2020 14:56:00 May 26 10:56 am May 26 7:56 am
252.49 05/26/2020 14:26:08 May 26 10:26 am May 26 7:26 am
252.49 05/26/2020 13:56:16 May 26 09:56 am May 26 6:56 am
254.29 05/26/2020 13:26:24 May 26 09:26 am May 26 6:26 am
254.97 05/26/2020 12:56:32 May 26 08:56 am May 26 5:56 am
257.97 05/26/2020 12:26:40 May 26 08:26 am May 26 5:26 am
258.82 05/26/2020 11:56:48 May 26 07:56 am May 26 4:56 am
260.62 05/26/2020 11:26:56 May 26 07:26 am May 26 4:26 am
261.30 05/26/2020 10:57:04 May 26 06:57 am May 26 3:57 am
262.80 05/26/2020 10:27:12 May 26 06:27 am May 26 3:27 am
263.48 05/26/2020 09:57:20 May 26 05:57 am May 26 2:57 am
267.08 05/26/2020 09:27:28 May 26 05:27 am May 26 2:27 am
267.08 05/26/2020 08:57:36 May 26 04:57 am May 26 1:57 am
268.58 05/26/2020 08:27:44 May 26 04:27 am May 26 1:27 am
268.61 05/26/2020 07:57:52 May 26 03:57 am May 26 12:57 am
275.51 05/26/2020 07:25:52 May 26 03:25 am May 26 12:25 am
276.36 05/26/2020 06:56:00 May 26 02:56 am May 25 11:56 pm
278.16 05/26/2020 06:26:08 May 26 02:26 am May 25 11:26 pm
278.16 05/26/2020 05:56:16 May 26 01:56 am May 25 10:56 pm
279.96 05/26/2020 05:26:24 May 26 01:26 am May 25 10:26 pm
280.64 05/26/2020 04:56:32 May 26 12:56 am May 25 9:56 pm
284.24 05/26/2020 04:26:40 May 26 12:26 am May 25 9:26 pm
285.43 05/26/2020 03:56:48 May 25 11:56 pm May 25 8:56 pm
287.23 05/26/2020 03:26:56 May 25 11:26 pm May 25 8:26 pm
287.91 05/26/2020 02:57:04 May 25 10:57 pm May 25 7:57 pm
290.01 05/26/2020 02:27:12 May 25 10:27 pm May 25 7:27 pm
290.52 05/26/2020 01:57:20 May 25 09:57 pm May 25 6:57 pm
290.52 05/26/2020 01:27:28 May 25 09:27 pm May 25 6:27 pm
291.88 05/26/2020 00:57:36 May 25 08:57 pm May 25 5:57 pm
291.88 05/26/2020 00:27:44 May 25 08:27 pm May 25 5:27 pm
293.07 05/25/2020 23:57:52 May 25 07:57 pm May 25 4:57 pm
276.57 05/25/2020 23:25:52 May 25 07:25 pm May 25 4:25 pm
279.63 05/25/2020 22:56:00 May 25 06:56 pm May 25 3:56 pm
256.23 05/25/2020 22:26:08 May 25 06:26 pm May 25 3:26 pm
265.75 05/25/2020 21:56:16 May 25 05:56 pm May 25 2:56 pm
257.35 05/25/2020 21:26:24 May 25 05:26 pm May 25 2:26 pm
242.90 05/25/2020 20:56:32 May 25 04:56 pm May 25 1:56 pm
237.50 05/25/2020 20:26:40 May 25 04:26 pm May 25 1:26 pm
236.31 05/25/2020 19:56:48 May 25 03:56 pm May 25 12:56 pm
236.31 05/25/2020 19:26:56 May 25 03:26 pm May 25 12:26 pm
236.82 05/25/2020 18:57:04 May 25 02:57 pm May 25 11:57 am
238.02 05/25/2020 18:27:12 May 25 02:27 pm May 25 11:27 am
239.38 05/25/2020 17:57:20 May 25 01:57 pm May 25 10:57 am
242.08 05/25/2020 17:27:28 May 25 01:27 pm May 25 10:27 am
242.59 05/25/2020 16:57:36 May 25 12:57 pm May 25 9:57 am
242.59 05/25/2020 16:27:44 May 25 12:27 pm May 25 9:27 am
245.28 05/25/2020 15:25:52 May 25 11:25 am May 25 8:25 am
245.96 05/25/2020 14:56:00 May 25 10:56 am May 25 7:56 am
247.46 05/25/2020 14:26:08 May 25 10:26 am May 25 7:26 am
248.65 05/25/2020 13:56:16 May 25 09:56 am May 25 6:56 am
249.85 05/25/2020 13:26:24 May 25 09:26 am May 25 6:26 am
251.21 05/25/2020 12:56:32 May 25 08:56 am May 25 5:56 am
251.21 05/25/2020 12:26:40 May 25 08:26 am May 25 5:26 am
252.40 05/25/2020 11:56:48 May 25 07:56 am May 25 4:56 am
253.90 05/25/2020 11:26:56 May 25 07:26 am May 25 4:26 am
254.58 05/25/2020 10:57:04 May 25 06:57 am May 25 3:57 am
256.08 05/25/2020 10:27:12 May 25 06:27 am May 25 3:27 am
257.27 05/25/2020 09:57:20 May 25 05:57 am May 25 2:57 am
258.77 05/25/2020 09:27:28 May 25 05:27 am May 25 2:27 am
260.64 05/25/2020 08:57:36 May 25 04:57 am May 25 1:57 am
260.64 05/25/2020 08:27:44 May 25 04:27 am May 25 1:27 am
261.32 05/25/2020 07:57:52 May 25 03:57 am May 25 12:57 am
263.20 05/25/2020 07:25:52 May 25 03:25 am May 25 12:25 am
264.39 05/25/2020 06:56:00 May 25 02:56 am May 24 11:56 pm
264.39 05/25/2020 06:26:08 May 25 02:26 am May 24 11:26 pm
266.26 05/25/2020 05:56:16 May 25 01:56 am May 24 10:56 pm
266.26 05/25/2020 05:26:24 May 25 01:26 am May 24 10:26 pm
269.15 05/25/2020 04:56:32 May 25 12:56 am May 24 9:56 pm
269.15 05/25/2020 04:26:40 May 25 12:26 am May 24 9:26 pm
271.36 05/25/2020 03:56:48 May 24 11:56 pm May 24 8:56 pm
272.86 05/25/2020 03:26:56 May 24 11:26 pm May 24 8:26 pm
276.77 05/25/2020 02:57:04 May 24 10:57 pm May 24 7:57 pm
276.77 05/25/2020 02:27:12 May 24 10:27 pm May 24 7:27 pm
279.83 05/25/2020 01:57:20 May 24 09:57 pm May 24 6:57 pm
279.83 05/25/2020 01:27:28 May 24 09:27 pm May 24 6:27 pm
277.45 05/25/2020 00:57:36 May 24 08:57 pm May 24 5:57 pm
277.45 05/25/2020 00:27:44 May 24 08:27 pm May 24 5:27 pm
277.45 05/24/2020 23:57:52 May 24 07:57 pm May 24 4:57 pm
278.95 05/24/2020 23:25:52 May 24 07:25 pm May 24 4:25 pm
270.62 05/24/2020 22:56:00 May 24 06:56 pm May 24 3:56 pm
272.12 05/24/2020 22:26:08 May 24 06:26 pm May 24 3:26 pm
265.66 05/24/2020 21:56:16 May 24 05:56 pm May 24 2:56 pm
267.16 05/24/2020 21:26:24 May 24 05:26 pm May 24 2:26 pm
267.84 05/24/2020 20:56:32 May 24 04:56 pm May 24 1:56 pm
270.54 05/24/2020 20:26:40 May 24 04:26 pm May 24 1:26 pm
271.90 05/24/2020 19:56:48 May 24 03:56 pm May 24 12:56 pm
273.40 05/24/2020 19:26:56 May 24 03:26 pm May 24 12:26 pm
274.59 05/24/2020 18:57:04 May 24 02:57 pm May 24 11:57 am
276.39 05/24/2020 18:27:12 May 24 02:27 pm May 24 11:27 am
277.75 05/24/2020 17:57:20 May 24 01:57 pm May 24 10:57 am
280.75 05/24/2020 17:27:28 May 24 01:27 pm May 24 10:27 am
281.94 05/24/2020 16:57:36 May 24 12:57 pm May 24 9:57 am
281.94 05/24/2020 16:27:44 May 24 12:27 pm May 24 9:27 am
284.42 05/24/2020 15:25:52 May 24 11:25 am May 24 8:25 am
285.10 05/24/2020 14:56:00 May 24 10:56 am May 24 7:56 am
286.60 05/24/2020 14:26:08 May 24 10:26 am May 24 7:26 am
288.13 05/24/2020 13:56:16 May 24 09:56 am May 24 6:56 am
291.73 05/24/2020 13:26:24 May 24 09:26 am May 24 6:26 am
293.26 05/24/2020 12:56:32 May 24 08:56 am May 24 5:56 am
294.76 05/24/2020 12:26:40 May 24 08:26 am May 24 5:26 am
295.61 05/24/2020 11:56:48 May 24 07:56 am May 24 4:56 am
297.41 05/24/2020 11:26:56 May 24 07:26 am May 24 4:26 am
298.94 05/24/2020 10:57:04 May 24 06:57 am May 24 3:57 am
302.54 05/24/2020 10:27:12 May 24 06:27 am May 24 3:27 am
304.07 05/24/2020 09:57:20 May 24 05:57 am May 24 2:57 am
305.87 05/24/2020 09:27:28 May 24 05:27 am May 24 2:27 am
306.55 05/24/2020 08:57:36 May 24 04:57 am May 24 1:57 am
308.35 05/24/2020 08:27:44 May 24 04:27 am May 24 1:27 am
309.20 05/24/2020 07:57:52 May 24 03:57 am May 24 12:57 am
313.48 05/24/2020 07:25:52 May 24 03:25 am May 24 12:25 am
315.18 05/24/2020 06:56:00 May 24 02:56 am May 23 11:56 pm
316.98 05/24/2020 06:26:08 May 24 02:26 am May 23 11:26 pm
318.51 05/24/2020 05:56:16 May 24 01:56 am May 23 10:56 pm
320.61 05/24/2020 05:26:24 May 24 01:26 am May 23 10:26 pm
322.14 05/24/2020 04:56:32 May 24 12:56 am May 23 9:56 pm
323.94 05/24/2020 04:26:40 May 24 12:26 am May 23 9:26 pm
325.47 05/24/2020 03:56:48 May 23 11:56 pm May 23 8:56 pm
327.27 05/24/2020 03:26:56 May 23 11:26 pm May 23 8:26 pm
328.97 05/24/2020 02:57:04 May 23 10:57 pm May 23 7:57 pm
332.87 05/24/2020 02:27:12 May 23 10:27 pm May 23 7:27 pm
334.40 05/24/2020 01:57:20 May 23 09:57 pm May 23 6:57 pm
336.20 05/24/2020 01:27:28 May 23 09:27 pm May 23 6:27 pm
338.58 05/24/2020 00:57:36 May 23 08:57 pm May 23 5:57 pm
342.48 05/24/2020 00:27:44 May 23 08:27 pm May 23 5:27 pm
340.28 05/23/2020 23:57:52 May 23 07:57 pm May 23 4:57 pm
345.98 05/23/2020 23:25:52 May 23 07:25 pm May 23 4:25 pm
347.68 05/23/2020 22:56:00 May 23 06:56 pm May 23 3:56 pm
351.58 05/23/2020 22:26:08 May 23 06:26 pm May 23 3:26 pm
354.81 05/23/2020 21:56:16 May 23 05:56 pm May 23 2:56 pm
356.61 05/23/2020 21:26:24 May 23 05:26 pm May 23 2:26 pm
358.99 05/23/2020 20:56:32 May 23 04:56 pm May 23 1:56 pm
361.09 05/23/2020 20:26:40 May 23 04:26 pm May 23 1:26 pm
363.64 05/23/2020 19:56:48 May 23 03:56 pm May 23 12:56 pm
367.54 05/23/2020 19:26:56 May 23 03:26 pm May 23 12:26 pm
370.09 05/23/2020 18:57:04 May 23 02:57 pm May 23 11:57 am
373.99 05/23/2020 18:27:12 May 23 02:27 pm May 23 11:27 am
376.54 05/23/2020 17:57:20 May 23 01:57 pm May 23 10:57 am
380.74 05/23/2020 17:27:28 May 23 01:27 pm May 23 10:27 am
384.14 05/23/2020 16:57:36 May 23 12:57 pm May 23 9:57 am
384.14 05/23/2020 16:27:44 May 23 12:27 pm May 23 9:27 am
388.49 05/23/2020 15:25:52 May 23 11:25 am May 23 8:25 am
390.19 05/23/2020 14:56:00 May 23 10:56 am May 23 7:56 am
392.29 05/23/2020 14:26:08 May 23 10:26 am May 23 7:26 am
395.01 05/23/2020 13:56:16 May 23 09:56 am May 23 6:56 am

Reports give the public a chance to report on river conditions throughout the country as well as log the history of a river.

No Reports Filed

Linked Reaches

River Name/Section Class Level   Updated
Elk (Carter County) [TN] Big Falls to Poga Rd IV-V(V+) 151 cfs
+ 1 cfs/hr
L7-
Below Recom.

00h57m
Elk [NC] B) Twisting Falls Gorge: Big Falls (Route 1306) to bridge ab... IV-V(V+) 151 cfs
+ 1 cfs/hr
L7-
Below Recom.

00h57m

Associated Gauges

Disclaimer Data Sources

Doe at Elizabethton (AW#50449)

1.47 ft 01h25m

Doe at Elizabethton (AW#50449)

308 cfs 01h25m

WATAUGA RIVER NEAR SUGAR GROVE, NC (AW#1769)

338 cfs 00h55m

WATAUGA RIVER NEAR SUGAR GROVE, NC (AW#1769)

2.58 ft 00h55m